Flag for Uruguay Weather past 2 weeks in San José de Mayo, Uruguay

Now
59 °F

Fog.


Feels Like: 58 °F
Forecast: 49 / 64 °F
Wind: 7 mph from Northwest

Location: Carrasco

Current Time: Jul 30, 2014 at 6:17:10 AM

Latest Report: Jul 30, 2014 at 6:00 AM


Visibility: 1 mi

Pressure: 30.07 "Hg

Humidity: 100%

Dew point: 59 °F

Location of San José de MayoLocation

Historic Weather in San José de Mayo — Graph

°F

San José de Mayo temperature yesterday

Maximum temperature yesterday: 66 °F (at 3:00 PM)
Minimum temperature yesterday: 48 °F (at 12:00 AM)
Average temperature yesterday: 59 °F

Past Weeks' High & Low Weather Summary

 TemperatureHumidityPressure
High70 °F (Jul 20, 2:00 PM)100% (Jul 15, 3:00 PM)30.42 "Hg (Jul 15, 3:00 PM)
Low32 °F (Jul 27, 7:00 AM)31% (Jul 25, 3:00 PM)29.74 "Hg (Jul 22, 1:42 PM)
Average52 °F77%30.10 "Hg
* Reported Jul 15 5:00 AM — Jul 30 5:00 AM, San José de Mayo, Weather by CustomWeather, © 2014

Note: Actual official high and low records may vary slightly from our data, if they occured in-between our weather recording intervals... More about our weather records

Advertising

San José de Mayo weather history for previous 24 hours

 ConditionsComfort  
Time TempWeatherWind HumidityBarometerVisibility
5:00 AM
Jul 30
61 °FFog.8 mph94%30.07 "Hg3 mi
4:00 AM59 °FClear.6 mph94%30.07 "Hg10 mi
3:00 AM63 °FClear.6 mph94%30.07 "Hg10 mi
2:00 AM63 °FDrizzle. Overcast.8 mph94%30.07 "Hg5 mi
1:00 AM61 °FThunderstorms. Overcast.8 mph100%30.07 "Hg2 mi
12:10 AM61 °FThunderstorms. Overcast.6 mph100%30.07 "Hg3 mi
12:00 AM61 °FThundershowers. Overcast.6 mph100%30.07 "HgN/A
11:10 PM
Jul 29
63 °FThunderstorms. Overcast.6 mph88%30.07 "Hg5 mi
11:00 PM63 °FDrizzle. Overcast.6 mph88%30.07 "HgN/A
10:00 PM63 °FDrizzle. Overcast.8 mph88%30.07 "HgN/A
9:00 PM64 °FOvercast.8 mph83%30.07 "HgN/A
8:00 PM64 °FOvercast.10 mph83%30.07 "HgN/A
7:00 PM64 °FMostly cloudy.6 mph83%30.07 "HgN/A
6:00 PM64 °FMostly cloudy.7 mph78%30.04 "HgN/A
5:00 PM66 °FClear.5 mph73%30.04 "Hg10 mi
4:00 PM66 °FMore clouds than sun.8 mph73%30.04 "HgN/A
3:00 PM66 °FMore clouds than sun.16 mph68%30.07 "HgN/A
2:00 PM64 °FBroken clouds.10 mph73%30.09 "HgN/A
1:00 PM64 °FBroken clouds.15 mph68%30.12 "HgN/A
12:00 PM63 °FPartly sunny.18 mph68%30.12 "HgN/A
11:00 AM59 °FPartly sunny.15 mph77%30.15 "HgN/A
10:00 AM55 °FScattered clouds.14 mph88%30.15 "HgN/A
9:00 AM54 °FScattered clouds.15 mph88%30.15 "HgN/A
8:00 AM52 °FBroken clouds.14 mph94%30.15 "HgN/A
7:00 AM54 °FSunny.13 mph77%30.15 "Hg10 mi
6:00 AM54 °FClear.16 mph72%30.18 "Hg10 mi
Weather by CustomWeather, © 2014

See weather overviewHow to use our weather pages